Presure
149 153 84 82 87 87 108 88 91 98 110 98 123 111 143 146 134 133 149 108 90 83 118 122 101 144 100 102 101 107 111 91 98 102 96 97 118 115 113 117 112 116 115
184 173 119 86 99 129 87 99 98 94 122 125 102 129 96 96 163 111 147 168 173 101 170 96 92 92 99 128 94 95 97 97 107 98 116 110 105 96 100 98 97 115 109
183 181 180 121 123 119 82 134 119 121 114 123 84 130 135 126 97 184 121 150 170 177 176 120 156 154 107 108 98 101 98 111 113 106 109 133 97 104 107 127 115 95 101
166 191 184 154 162 99 118 119 145 121 123 128 125 128 107 78 85 87 133 166 147 162 172 178 177 152 147 156 151 141 140 101 102 114 115 113 131 128 120 123 115 125 136
155 158 151 152 165 111 119 191 123 121 147 134 153 151 144 106 130 110 82 91 136 157 155 166 174 177 172 186 156 151 127 152 138 147 108 108 111 119 120 125 124 122 108
176 150 154 155 156 158 153 152 188 121 117 147 147 79 123 161 157 139 129 130 144 88 89 148 156 173 163 156 181 149 151 178 137 168 160 146 175 178 140 138 141 128 125
155 202 243 121 133 152 156 95 96 182 162 154 174 169 149 155 157 166 166 136 136 131 134 138 159 148 166 173 111 155 173 152 142 166 168 155 154 149 149 149 139 132 146
229 216 164 237 140 88 83 90 94 95 127 164 149 176 196 170 155 175 166 176 151 128 141 152 151 137 152 161 168 164 163 153 169 155 135 141 150 158 156 160 151 157 161
218 227 200 190 236 151 142 103 88 88 89 91 138 95 122 109 109 151 154 176 173 172 160 151 131 136 144 139 161 161 169 176 175 149 164 169 164 169 155 159 170 167 159
207 211 231 229 182 194 187 183 180 172 167 161 89 98 97 121 96 145 143 151 180 170 163 167 180 134 129 137 140 158 160 168 169 179 160 166 156 164 169 170 167 157 145
202 205 209 217 229 204 175 175 176 92 180 179 173 167 106 88 140 89 87 125 139 151 151 174 168 166 143 146 139 154 159 158 157 167 162 157 160 152 150 150 149 147 147
198 201 202 205 179 220 225 203 182 140 195 182 178 135 172 110 163 165 161 167 161 155 152 157 160 179 160 176 158 167 139 144 150 135 166 167 162 163 103 105 137 163 161
194 181 192 200 203 206 210 217 221 222 189 185 182 178 174 174 166 169 170 169 180 106 97 102 105 173 157 171 164 173 135 140 140 150 147 138 167 160 152 148 157 164 139
174 198 152 158 173 181 160 198 208 215 221 224 209 185 186 183 172 174 170 169 171 166 171 123 167 160 105 103 161 168 170 170 164 151 137 157 144 135 130 153 157 156 143
168 183 176 157 190 204 206 193 197 193 195 210 160 221 227 206 193 189 181 173 174 173 170 168 179 173 176 163 133 169 151 156 176 161 161 138 136 134 131 131 132 132 134
144 142 141 154 135 133 133 149 175 187 205 213 209 206 221 194 223 224 202 189 184 178 173 174 175 172 167 159 169 162 155 160 161 176 178 164 165 136 139 139 141 133 131
139 135 142 145 179 185 177 175 129 167 201 182 199 204 142 207 135 136 199 224 200 193 184 180 179 173 175 173 178 85 84 167 165 101 129 136 150 169 173 133 158 135 148
136 130 145 136 146 142 141 138 146 146 200 165 202 185 181 184 124 185 177 216 177 152 205 196 178 182 179 180 175 180 176 172 165 162 170 123 158 156 143 152 159 163 130
153 148 138 140 138 133 124 131 137 141 127 135 169 208 165 175 182 192 128 135 199 215 192 220 203 199 165 186 184 181 179 177 180 175 168 167 158 172 141 158 123 123 152
186 149 150 135 133 125 126 135 145 143 131 131 133 131 139 109 144 130 186 188 167 184 173 208 172 216 206 195 191 175 191 190 168 178 182 179 158 167 151 165 162 160 146
220 252 230 142 130 137 142 144 147 133 117 120 138 133 129 112 82 139 136 135 122 150 181 144 144 201 221 212 110 125 195 179 178 184 184 162 178 179 190 166 165 169 175
264 268 257 252 143 145 147 146 137 125 121 127 136 126 143 140 126 127 132 127 129 122 135 222 195 174 185 124 209 161 179 152 191 152 183 178 184 186 182 182 172 163 164
254 258 253 251 259 264 258 206 142 135 135 138 130 141 138 133 164 140 131 131 130 141 170 134 195 155 157 194 184 189 146 173 158 182 137 171 156 180 191 186 179 175 176
252 278 278 286 280 380 305 278 274 235 256 140 138 136 139 138 129 130 126 135 114 133 138 114 208 143 223 227 204 189 190 181 202 129 143 159 189 192 155 170 200 194 185
249 253 284 282 349 388 325 284 276 265 253 254 136 132 135 200 280 119 132 128 284 118 141 131 127 233 164 138 229 147 154 151 207 167 138 178 170 201 202 212 181 199 182
259 271 275 262 389 370 354 295 271 269 258 254 253 179 168 270 263 177 126 272 128 137 128 137 133 141 225 140 229 212 218 140 191 177 167 197 198 161 142 181 173 182 182
Wind_Speed
32 33 26 22 23 21 29 21 18 23 23 21 26 23 29 27 25 22 22 14 13 14 18 21 14 31 13 14 10 15 15 9 10 12 8 7 19 18 18 21 16 18 17
41 37 38 27 28 36 23 26 25 22 30 32 23 31 21 18 30 28 29 27 27 18 30 14 13 13 15 25 10 10 11 12 16 12 20 16 14 10 11 9 9 20 16
42 43 41 41 37 37 25 38 33 37 34 34 19 34 32 32 23 29 33 31 28 29 30 26 32 30 18 20 14 16 15 20 22 17 19 29 13 17 18 29 23 14 15
40 46 44 43 38 34 39 40 42 40 37 38 39 38 27 16 18 18 28 34 32 32 30 30 32 36 37 34 36 37 32 18 17 24 24 24 32 30 27 28 23 30 31
41 40 40 39 44 43 43 40 45 42 40 42 41 41 42 31 39 32 18 21 33 35 32 32 32 34 34 36 39 38 33 36 32 34 23 22 23 28 28 31 31 30 23
45 44 44 43 41 40 42 42 44 45 42 44 43 24 44 42 41 44 40 41 39 21 20 36 36 32 35 38 37 40 38 41 38 41 40 37 41 41 38 39 37 34 33
46 42 49 41 44 44 44 34 33 46 44 47 49 49 45 45 45 45 46 44 42 40 39 38 39 38 36 36 29 41 40 41 39 41 40 40 41 41 41 41 39 37 40
38 42 50 51 45 37 31 34 35 35 44 46 49 48 47 49 47 47 47 49 46 42 42 43 41 39 41 41 39 39 38 41 40 41 39 39 40 42 42 42 41 42 39
40 40 37 51 53 49 47 38 38 36 35 36 46 35 39 35 33 46 46 53 53 53 49 46 41 42 41 41 43 43 41 41 43 43 42 43 42 43 42 43 42 41 40
43 43 42 47 54 54 57 56 56 54 53 53 37 41 39 43 35 48 46 46 54 55 51 50 52 45 43 44 43 45 44 44 43 43 44 43 43 43 44 43 42 40 41
46 46 47 47 48 55 57 56 56 28 57 58 58 56 39 35 49 35 33 44 46 48 51 56 51 53 50 49 45 46 48 47 44 46 45 46 46 46 46 45 44 44 44
49 50 49 50 46 52 54 60 61 50 66 61 61 48 61 41 59 59 56 58 56 53 52 53 53 61 51 57 51 53 47 47 47 43 48 48 49 49 36 38 42 45 44
50 49 52 53 54 54 57 59 61 63 65 64 63 63 63 64 62 63 63 62 62 40 41 40 36 61 50 59 54 58 47 49 48 48 47 45 51 51 48 46 47 48 44
50 54 46 47 51 53 50 58 61 63 65 66 68 67 68 68 65 67 65 64 65 61 63 43 66 60 42 39 55 59 61 60 57 53 49 52 49 47 45 50 50 48 43
52 56 54 50 57 60 61 60 62 61 62 65 48 70 72 76 75 73 71 68 69 68 66 65 68 69 67 60 49 61 55 58 65 59 58 53 52 50 49 48 47 45 45
49 49 49 52 46 46 45 48 56 59 65 67 67 68 71 65 76 79 80 75 76 73 70 71 73 72 66 63 66 63 57 58 58 66 66 64 64 54 54 54 54 51 50
52 50 52 53 61 62 60 59 48 56 65 61 66 67 45 70 44 43 70 81 82 81 79 77 77 73 73 70 72 23 21 67 64 40 51 57 60 67 68 57 61 55 59
57 54 57 55 55 54 53 51 52 51 67 58 68 66 64 66 44 70 66 80 64 50 87 86 76 80 78 80 74 75 74 73 68 65 67 50 65 63 61 62 63 64 59
64 64 61 61 59 55 50 53 54 54 51 52 61 73 59 62 67 71 44 45 78 83 72 89 88 89 67 86 82 77 77 77 78 75 71 69 68 74 59 67 49 50 64
71 68 67 63 61 53 54 58 59 57 52 51 52 52 52 40 52 49 72 74 63 74 70 84 68 92 90 91 87 75 88 80 70 78 79 77 71 75 69 74 73 71 63
73 75 75 68 61 65 65 64 63 57 50 50 54 52 52 44 31 53 50 49 42 55 77 53 53 84 93 93 43 48 96 79 77 86 83 71 79 81 81 76 75 76 80
81 76 76 78 64 70 69 68 65 58 53 55 58 52 58 57 54 53 53 48 48 43 46 89 86 78 81 52 92 71 79 62 88 62 82 81 84 86 83 83 79 74 75
80 78 73 75 76 79 76 71 69 67 67 66 60 64 60 58 72 64 56 55 53 60 66 51 78 64 64 88 85 85 54 76 75 83 52 76 65 83 90 90 86 81 78
82 83 76 66 68 61 72 77 78 76 76 69 69 65 65 63 61 61 55 61 45 59 62 45 87 60 91 97 96 87 86 83 98 53 56 67 89 90 67 73 93 89 83
81 77 82 70 61 57 71 78 78 78 77 75 69 67 66 70 64 54 62 57 81 49 71 58 51 101 66 54 101 57 66 60 98 83 56 86 74 100 99 87 86 88 82
89 86 81 69 55 56 64 77 77 79 79 76 75 72 67 67 69 64 59 67 60 66 61 68 63 68 92 62 103 92 99 60 94 84 79 105 102 64 61 77 77 80 79
Wind_Direction
243 251 238 235 239 236 234 238 238 245 232 238 239 242 231 233 237 226 225 214 205 217 219 232 229 236 247 249 246 244 255 229 256 257 256 263 268 277 285 281 290 285 291
254 251 241 246 244 230 229 233 232 240 240 242 239 237 246 233 231 240 235 222 223 241 222 231 224 230 234 237 252 254 253 252 257 258 258 270 273 260 273 273 278 286 289
249 249 248 246 236 236 238 239 237 243 243 241 229 249 240 240 244 235 239 233 226 228 226 244 222 234 239 241 241 253 261 254 256 263 261 261 261 265 272 276 278 269 273
242 246 247 245 237 245 240 243 237 245 246 243 245 245 244 261 256 250 239 230 237 227 229 230 229 229 232 238 241 247 246 259 263 258 260 262 263 266 268 273 277 281 279
241 241 240 237 246 245 243 235 243 243 238 245 238 240 241 246 245 241 259 254 242 234 230 229 234 233 233 231 236 246 253 250 253 252 263 265 267 266 268 272 277 279 275
245 242 241 240 239 234 227 227 233 245 243 237 237 242 245 242 242 244 245 245 239 255 255 240 234 237 236 232 237 241 246 242 251 247 252 260 250 252 267 270 274 278 283
243 240 234 241 241 237 234 243 241 234 234 239 235 232 238 238 240 241 244 244 243 248 247 243 233 242 237 241 257 238 243 245 251 247 247 256 258 264 266 268 271 276 276
244 242 245 233 238 242 249 246 243 243 240 232 240 236 235 239 242 238 238 241 243 248 245 241 241 247 241 239 241 245 248 242 248 249 259 257 258 260 261 261 266 268 269
241 240 241 241 234 240 242 247 248 245 246 247 238 252 244 250 248 244 243 239 240 242 243 244 250 250 245 250 243 244 248 251 247 247 252 255 256 257 262 263 262 264 268
241 238 238 236 239 239 239 239 240 240 239 238 246 244 250 247 252 245 244 246 240 243 248 245 241 248 251 253 252 246 247 249 250 252 251 255 253 258 260 262 264 266 271
242 240 238 237 238 238 241 240 240 252 238 238 239 240 250 254 245 250 249 246 247 245 243 246 245 245 247 248 252 249 249 250 252 251 249 251 254 255 259 259 262 265 266
245 242 240 239 240 236 237 238 239 243 240 238 237 242 238 252 243 245 244 244 245 247 249 251 250 246 248 246 250 250 254 254 254 257 252 252 255 257 271 269 266 264 265
246 249 246 242 240 239 237 236 236 237 240 241 240 239 240 239 242 244 245 246 246 250 248 247 245 248 246 251 251 250 252 254 255 255 256 257 255 258 260 264 264 266 271
244 249 240 242 246 245 239 240 239 238 237 237 239 242 242 241 241 240 244 245 246 247 247 249 250 251 252 252 249 252 253 253 253 255 257 255 259 259 261 262 264 267 267
245 247 245 241 246 246 242 243 243 242 241 240 240 237 237 241 242 242 240 244 244 246 247 247 248 249 248 250 252 250 253 256 254 254 256 256 258 260 261 262 264 265 265
240 238 240 242 236 234 234 239 244 243 241 242 241 240 238 240 239 239 240 241 242 244 245 246 248 251 251 251 251 251 250 251 252 256 254 257 258 260 261 263 264 264 265
240 239 240 241 246 245 244 242 239 244 244 242 242 241 246 239 240 246 240 238 241 242 244 245 246 249 251 250 249 260 254 254 254 269 258 260 257 261 261 266 263 264 267
240 241 241 239 241 240 238 236 239 237 245 245 245 240 239 240 243 244 244 241 246 246 241 243 246 246 248 250 249 250 250 252 253 254 256 265 257 258 260 261 264 267 270
242 239 239 239 240 239 243 239 237 239 239 239 246 246 247 245 242 241 246 249 244 242 245 240 242 243 249 249 250 250 250 250 252 253 254 254 257 260 263 261 269 271 264
251 240 239 240 241 245 245 243 245 243 237 237 240 242 246 244 249 249 242 242 246 247 249 244 250 241 241 245 248 251 250 250 253 253 253 254 255 257 257 261 263 265 270
257 262 258 239 247 242 242 244 245 243 244 244 242 242 246 247 245 251 252 252 247 256 248 255 252 245 241 242 261 253 252 253 252 250 252 253 253 255 255 257 259 262 266
267 266 260 258 250 243 241 242 244 249 250 248 247 246 246 246 248 254 256 255 253 243 255 243 245 250 246 254 242 255 250 253 253 256 253 253 254 253 254 256 257 260 262
269 267 258 257 257 256 257 249 242 245 246 247 248 247 245 246 244 249 254 257 260 259 253 257 251 248 250 245 248 245 258 250 254 253 259 254 259 256 254 255 256 259 260
269 273 270 266 257 256 244 248 246 247 250 243 245 246 247 245 247 250 253 254 246 260 260 254 248 260 244 242 244 247 247 248 246 258 256 257 253 252 261 259 252 256 260
268 266 276 271 267 254 240 242 242 245 247 249 244 245 245 248 253 256 250 253 247 256 254 259 261 245 252 261 242 257 249 251 244 252 256 255 256 252 253 248 257 254 262
272 274 274 269 263 251 241 236 240 241 244 247 248 245 247 251 249 251 251 252 253 252 256 254 259 258 247 265 243 241 240 251 243 252 257 249 252 256 258 254 257 259 262